Location: Carrizalito
(10.3833°N, 67.0217°W)
Time: 09:07:29
(UTC+00:00)

Meteor 1-11 Rocket - Pass Details

Date: 09 July 2022
Orbit: 830 x 916 km, 81.2° (Epoch: 14 August)

Event Time Altitude Azimuth Distance (km) Brightness Sun altitude
Exits shadow 08:44:31 28° 281° (W) 1,642 4.8 -20.3°
Drops below altitude 10° 08:49:16 10° 335° (NNW) 2,585 6.3 -19.3°
Sets 08:52:05 0° 346° (NNW) 3,516 7.1 -18.7°
